Torna al catalogo

STARLINK-37466

AttivoComunicazioniSSO
NORAD 69038·PAYLOAD·🇺🇸 United States

Lanciato May 6, 2026 da Vandenberg Space Force Base

Loading…

Prossimi Passaggi (prossime 24 ore)

TLE

AggiornatoSource: CelesTrak SupGP

Epoca: Sep 15, 2026, 03:34 UTC

1 69038C 26101P   26258.14909722 -.00022439  00000+0 -69631-3 0  2580
2 69038  97.2851 111.7952 0001930  95.0306 300.3910 15.33461190    12

Traccia STARLINK-37466 in tempo reale con AllMySat

Download on the App Store